Grand Strand Airport

Airport
ICAO code: 
KCRE
IATA Code: 
CRE
Summary
ICAO Region: 
NAM
Territory: 
Location: 
North Myrtle Beach, South Carolina
Serving: 
Horry County
Elevation: 
32 ft
Coordinates: 
Aerial View: 
33° 48' 42.005" N, 78° 43' 26.011" W
Metar
Observation
KCRE 210453Z AUTO 02013G20KT 10SM -RA OVC006 08/07 A3014 RMK AO1 CIG 005V011 SLP207 P0001 T00780067 401940072
Station
North Myrtle Beach, Grand Strand Airport
Date/Time
2022-01-21 04:53:00
Wind direction
20°
Wind speed
13 kts
Lowest cloud amount
overcast
Temperature
7.8°C
Dew point
6.7°C
Humidity
92%
Weather condition
light rain

Grand Strand Airport is a county-owned, public-use airport located 1nm northwest of the central business district of North Myrtle Beach, in Horry County, South Carolina, United States.

Climatology

Humid “subtropical” climate (Köppen climate classification Cfa) - characterized by hot, humid summers and cool winters. Significant amounts of precipitation occur in all seasons in most areas. Winter rainfall (and sometimes snowfall) is associated with large storms that the westerlies steer from west to east. Most summer rainfall occurs during thunderstorms and occasional tropical storms (hurricanes).

Runways

Designator Length Width Surface Rops
5/23 1828 30 ASP Yes/Yes
Airport map: 
Aerial View: 

SKYbrary Partners:

Safety knowledge contributed by: